Location: Bercimuel
(41.3983°N, 3.5711°W)
Time: 11:22:02
(UTC+00:00)

Spot 4 - Pass Details

Date: 15 May 2026
Orbit: 698 x 714 km, 98.2° (Epoch: 8 June)

Event Time Altitude Azimuth Distance (km) Brightness Sun altitude
Exits shadow 23:36:12 58° 356° (N) 821 4.3 -29.0°
Drops below altitude 10° 23:40:04 10° 348° (NNW) 2,188 7.3 -29.1°
Sets 23:42:20 0° 348° (NNW) 3,113 8.4 -29.2°
